Fremont, MI

9:43 AM EDT on August 17, 2019 (GMT -0400)
Fremont

Weather History for KFFX - May, 2019

Change the Weather History Date:

Sunday, May 26, 2019

  Actual Average (WUND) Record (WUND)
Temperature  
Mean Temperature 65 °F -  
Max Temperature 74 °F - - (-1)
Min Temperature 56 °F - - (-1)
Growing Degree Days 15 (Base 50)    
Moisture  
Dew Point 49 °F    
Average Humidity 61    
Maximum Humidity 98    
Minimum Humidity 32    
Precipitation  
Precipitation 0.00 in - - ()
Sea Level Pressure  
Sea Level Pressure 30.01 in    
Wind  
Wind Speed 4 mph ()    
Max Wind Speed 14 mph    
Max Gust Speed 18 mph    
Visibility 10.0 miles    
Events      
Averages and records for this station are not official NWS values.
T = Trace of Precipitation, MM = Missing Value Source: Averaged Metar Reports

Daily Weather History Graph

Daily Weather History Graph

Search for Another Location

Airport or City:

Astronomy

May. 26, 2019 Rise Set
Actual Time 6:09 AM EDT 9:12 PM EDT
Civil Twilight 5:35 AM EDT 9:46 PM EDT
Nautical Twilight 4:51 AM EDT 10:30 PM EDT
Astronomical Twilight 4:00 AM EDT 11:23 PM EDT
Moon 2:41 AM EDT (5/26) 1:11 PM EDT (5/26)
Length of Visible Light 16h 11m
Length of Day
15h 02m
Waning Gibbous, 50% of the Moon is Illuminated
May 26
Waning Gibbous
May 26
Last Quarter
Jun 3
New
Jun 10
First Quarter
Jun 17
Full

Hourly Weather History & Observations

Time (EDT) Temp. Dew Point Humidity Pressure Visibility Wind Dir Wind Speed Gust Speed Precip Events Conditions
12:15 AM 62.6 °F 57.6 °F 84% 29.92 in 10.0 mi SW 6.9 mph - N/A   Scattered Clouds
12:16 AM 62.4 °F 57.6 °F 84% 29.92 in 10.0 mi WSW 6.9 mph - N/A   Scattered Clouds
12:35 AM 62.2 °F 57.4 °F 84% 29.92 in 10.0 mi WSW 6.9 mph - N/A   Mostly Cloudy
12:36 AM 62.2 °F 57.2 °F 84% 29.92 in 10.0 mi WSW 5.8 mph - N/A   Mostly Cloudy
12:55 AM 62.2 °F 57.2 °F 84% 29.92 in 10.0 mi WSW 4.6 mph - N/A   Mostly Cloudy
1:15 AM 61.0 °F 58.3 °F 91% 29.93 in 10.0 mi WNW 3.5 mph - N/A   Mostly Cloudy
1:35 AM 60.8 °F 58.5 °F 92% 29.94 in 10.0 mi Calm Calm - N/A   Scattered Clouds
1:36 AM 60.8 °F 58.6 °F 93% 29.94 in 10.0 mi Calm Calm - N/A   Scattered Clouds
1:55 AM 59.7 °F 57.7 °F 93% 29.94 in 10.0 mi Calm Calm - N/A   Clear
1:56 AM 59.5 °F 57.7 °F 94% 29.94 in 10.0 mi Calm Calm - N/A   Clear
2:15 AM 58.3 °F 57.7 °F 98% 29.94 in 10.0 mi Calm Calm - N/A   Clear
2:35 AM 57.9 °F 57.4 °F 98% 29.95 in 10.0 mi West 3.5 mph - N/A   Clear
2:36 AM 58.1 °F 57.6 °F 98% 29.95 in 10.0 mi West 4.6 mph - N/A   Clear
2:55 AM 58.8 °F 57.7 °F 96% 29.95 in 10.0 mi SW 3.5 mph - N/A   Clear
2:56 AM 58.8 °F 57.7 °F 96% 29.95 in 10.0 mi Calm Calm - N/A   Clear
3:15 AM 57.6 °F 56.8 °F 97% 29.95 in 10.0 mi Calm Calm - N/A   Clear
3:35 AM 58.1 °F 56.8 °F 96% 29.94 in 10.0 mi Calm Calm - N/A   Clear
3:55 AM 57.4 °F 56.7 °F 97% 29.94 in 10.0 mi North 3.5 mph - N/A   Clear
3:56 AM 57.4 °F 56.7 °F 97% 29.94 in 10.0 mi North 3.5 mph - N/A   Clear
4:15 AM 57.7 °F 57.0 °F 97% 29.94 in 10.0 mi NNE 3.5 mph - N/A   Clear
4:35 AM 58.6 °F 53.6 °F 83% 29.95 in 10.0 mi NNE 5.8 mph - N/A   Clear
4:55 AM 58.5 °F 50.4 °F 74% 29.95 in 10.0 mi ENE 8.1 mph - N/A   Clear
4:56 AM 58.5 °F 50.2 °F 74% 29.95 in 10.0 mi ENE 9.2 mph - N/A   Clear
5:15 AM 57.9 °F 49.1 °F 72% 29.96 in 10.0 mi NE 5.8 mph - N/A   Clear
5:16 AM 57.9 °F 48.9 °F 72% 29.96 in 10.0 mi NE 5.8 mph - N/A   Clear
5:35 AM 58.1 °F 48.9 °F 71% 29.98 in 10.0 mi East 3.5 mph - N/A   Clear
5:55 AM 57.2 °F 50.0 °F 77% 29.99 in 10.0 mi East 3.5 mph - N/A   Mostly Cloudy
5:56 AM 57.2 °F 50.0 °F 77% 29.99 in 10.0 mi Calm Calm - N/A   Mostly Cloudy
6:15 AM 57.4 °F 51.1 °F 79% 29.99 in 10.0 mi Calm Calm - N/A   Overcast
6:16 AM 57.2 °F 51.1 °F 80% 29.99 in 10.0 mi Calm Calm - N/A   Overcast
6:35 AM 57.0 °F 51.4 °F 82% 30.01 in 10.0 mi Calm Calm - N/A   Overcast
6:55 AM 58.1 °F 51.3 °F 78% 30.02 in 10.0 mi Calm Calm - N/A   Overcast
7:15 AM 58.3 °F 51.3 °F 77% 30.01 in 10.0 mi Calm Calm - N/A   Overcast
7:35 AM 59.0 °F 49.8 °F 72% 30.02 in 10.0 mi East 3.5 mph - N/A   Overcast
7:36 AM 59.0 °F 49.6 °F 71% 30.02 in 10.0 mi East 3.5 mph - N/A   Overcast
7:55 AM 59.4 °F 49.8 °F 71% 30.02 in 10.0 mi Calm Calm - N/A   Overcast
8:15 AM 59.9 °F 49.5 °F 68% 30.02 in 10.0 mi ENE 4.6 mph - N/A   Mostly Cloudy
8:35 AM 60.8 °F 47.8 °F 62% 30.03 in 10.0 mi East 5.8 mph - N/A   Overcast
8:36 AM 60.8 °F 47.8 °F 62% 30.03 in 10.0 mi East 5.8 mph - N/A   Overcast
8:55 AM 61.5 °F 47.8 °F 61% 30.03 in 10.0 mi ENE 5.8 mph - N/A   Overcast
8:56 AM 61.7 °F 48.0 °F 61% 30.03 in 10.0 mi East 5.8 mph - N/A   Overcast
9:15 AM 62.1 °F 48.2 °F 60% 30.03 in 10.0 mi ENE 5.8 mph - N/A   Overcast
9:35 AM 63.3 °F 47.8 °F 57% 30.03 in 10.0 mi East 5.8 mph - N/A   Overcast
9:36 AM 63.3 °F 47.8 °F 57% 30.03 in 10.0 mi East 5.8 mph - N/A   Overcast
9:55 AM 64.2 °F 47.3 °F 54% 30.04 in 10.0 mi ENE 3.5 mph - N/A   Scattered Clouds
10:15 AM 64.9 °F 47.8 °F 54% 30.05 in 10.0 mi East 3.5 mph - N/A   Scattered Clouds
10:35 AM 65.3 °F 46.6 °F 51% 30.04 in 10.0 mi ESE 5.8 mph - N/A   Mostly Cloudy
10:36 AM 65.3 °F 46.4 °F 50% 30.04 in 10.0 mi ESE 6.9 mph - N/A   Mostly Cloudy
10:55 AM 66.6 °F 46.8 °F 49% 30.04 in 10.0 mi Calm Calm - N/A   Scattered Clouds
10:56 AM 66.6 °F 47.3 °F 50% 30.04 in 10.0 mi Calm Calm - N/A   Scattered Clouds
11:15 AM 66.2 °F 47.3 °F 51% 30.05 in 10.0 mi Calm Calm - N/A   Scattered Clouds
11:35 AM 67.1 °F 47.8 °F 50% 30.05 in 10.0 mi NNE 3.5 mph - N/A   Scattered Clouds
11:36 AM 67.1 °F 47.5 °F 49% 30.05 in 10.0 mi Calm Calm - N/A   Scattered Clouds
11:55 AM 67.1 °F 45.5 °F 46% 30.05 in 10.0 mi Calm Calm - N/A   Clear
11:56 AM 67.1 °F 45.5 °F 46% 30.05 in 10.0 mi Calm Calm - N/A   Clear
12:15 PM 67.3 °F 46.4 °F 47% 30.05 in 10.0 mi Calm Calm - N/A   Clear
12:35 PM 68.5 °F 46.8 °F 46% 30.05 in 10.0 mi Calm Calm - N/A   Clear
12:55 PM 69.3 °F 47.5 °F 46% 30.05 in 10.0 mi Calm Calm - N/A   Clear
1:15 PM 69.6 °F 47.1 °F 45% 30.04 in 10.0 mi Calm Calm - N/A   Clear
1:16 PM 69.8 °F 46.9 °F 44% 30.04 in 10.0 mi Calm Calm - N/A   Clear
1:35 PM 69.8 °F 45.1 °F 41% 30.05 in 10.0 mi ESE 3.5 mph - N/A   Clear
1:55 PM 71.4 °F 46.4 °F 41% 30.05 in 10.0 mi ENE 3.5 mph - N/A   Clear
2:15 PM 72.0 °F 46.9 °F 41% 30.04 in 10.0 mi NNW 4.6 mph - N/A   Clear
2:16 PM 72.0 °F 46.6 °F 40% 30.04 in 10.0 mi NNW 5.8 mph - N/A   Clear
2:35 PM 72.3 °F 46.4 °F 40% 30.05 in 10.0 mi Calm Calm - N/A   Clear
2:36 PM 72.3 °F 46.4 °F 40% 30.05 in 10.0 mi Calm Calm - N/A   Clear
2:55 PM 72.7 °F 44.6 °F 37% 30.05 in 10.0 mi NNW 3.5 mph - N/A   Clear
2:56 PM 72.7 °F 44.2 °F 36% 30.05 in 10.0 mi Calm Calm - N/A   Clear
3:15 PM 73.2 °F 45.7 °F 37% 30.05 in 10.0 mi Calm Calm - N/A   Clear
3:35 PM 73.4 °F 46.0 °F 38% 30.05 in 10.0 mi Calm Calm - N/A   Clear
3:55 PM 74.1 °F 45.9 °F 36% 30.04 in 10.0 mi North 6.9 mph - N/A   Clear
3:56 PM 74.3 °F 46.4 °F 37% 30.04 in 10.0 mi NNE 8.1 mph - N/A   Clear
4:15 PM 74.7 °F 43.2 °F 32% 30.04 in 10.0 mi Calm Calm - N/A   Clear
4:16 PM 74.5 °F 43.2 °F 33% 30.04 in 10.0 mi Calm Calm - N/A   Clear
4:35 PM 74.5 °F 45.0 °F 35% 30.04 in 10.0 mi Calm Calm - N/A   Scattered Clouds
4:55 PM 74.5 °F 45.9 °F 36% 30.04 in 10.0 mi Calm Calm - N/A   Clear
5:15 PM 74.1 °F 43.9 °F 34% 30.03 in 10.0 mi Calm Calm - N/A   Scattered Clouds
5:35 PM 74.3 °F 46.4 °F 37% 30.03 in 10.0 mi NW 5.8 mph - N/A   Scattered Clouds
5:36 PM 74.5 °F 46.6 °F 37% 30.03 in 10.0 mi NW 4.6 mph - N/A   Scattered Clouds
5:55 PM 73.4 °F 49.3 °F 42% 30.03 in 10.0 mi NNW 8.1 mph - N/A   Scattered Clouds
6:15 PM 72.9 °F 47.8 °F 41% 30.03 in 10.0 mi WNW 12.7 mph 17.3 mph N/A   Clear
6:35 PM 71.8 °F 47.5 °F 42% 30.03 in 10.0 mi NW 10.4 mph 16.1 mph N/A   Clear
6:36 PM 71.8 °F 47.5 °F 42% 30.03 in 10.0 mi NNW 13.8 mph - N/A   Clear
6:55 PM 70.7 °F 45.7 °F 41% 30.03 in 10.0 mi NW 12.7 mph 18.4 mph N/A   Clear
6:56 PM 70.7 °F 45.7 °F 41% 30.03 in 10.0 mi NW 12.7 mph 18.4 mph N/A   Clear
7:15 PM 70.3 °F 46.0 °F 42% 30.03 in 10.0 mi NW 10.4 mph - N/A   Clear
7:35 PM 69.4 °F 46.0 °F 43% 30.03 in 10.0 mi NW 12.7 mph - N/A   Clear
7:36 PM 69.3 °F 45.9 °F 43% 30.03 in 10.0 mi NW 11.5 mph - N/A   Clear
7:55 PM 68.4 °F 46.2 °F 45% 30.03 in 10.0 mi NNW 8.1 mph - N/A   Clear
7:56 PM 68.2 °F 46.4 °F 46% 30.03 in 10.0 mi NNW 8.1 mph - N/A   Clear
8:15 PM 67.3 °F 44.4 °F 44% 30.03 in 10.0 mi North 10.4 mph - N/A   Clear
8:35 PM 65.5 °F 45.1 °F 48% 30.03 in 10.0 mi North 5.8 mph - N/A   Clear
8:36 PM 65.3 °F 45.1 °F 48% 30.03 in 10.0 mi North 5.8 mph - N/A   Clear
8:55 PM 64.0 °F 45.1 °F 50% 30.04 in 10.0 mi North 4.6 mph - N/A   Clear
8:56 PM 63.9 °F 45.3 °F 51% 30.04 in 10.0 mi North 4.6 mph - N/A   Clear
9:35 PM 61.2 °F 44.8 °F 55% 30.03 in 10.0 mi North 4.6 mph - N/A   Clear
9:55 PM 59.2 °F 46.2 °F 62% 30.04 in 10.0 mi NW 3.5 mph - N/A   Clear
10:15 PM 58.5 °F 46.4 °F 64% 30.05 in 10.0 mi NNW 3.5 mph - N/A   Clear
10:35 PM 58.6 °F 46.4 °F 64% 30.06 in 10.0 mi Calm Calm - N/A   Clear
10:55 PM 58.5 °F 45.9 °F 63% 30.06 in 10.0 mi Calm Calm - N/A   Clear
10:56 PM 58.3 °F 46.0 °F 64% 30.06 in 10.0 mi Calm Calm - N/A   Clear
11:15 PM 57.6 °F 46.6 °F 67% 30.07 in 10.0 mi Calm Calm - N/A   Clear
11:35 PM 57.0 °F 45.3 °F 65% 30.08 in 10.0 mi NW 3.5 mph - N/A   Clear
11:55 PM 56.5 °F 45.0 °F 65% 30.07 in 10.0 mi North 3.5 mph - N/A   Clear
11:56 PM 56.5 °F 45.0 °F 65% 30.07 in 10.0 mi North 3.5 mph - N/A   Clear